sat.trackr.live / text

‹ back to catalog

STARLINK-36113

NORAD 66982 · 2025-288Z

PAYLOAD ACTIVE UNKNOWN

§ Identity

Operator
Country
US
Launch date
2025-12-08
Launch site
AFETR
Launch vehicle
Mass (kg)
RCS (m²)

Purposes: comms

External: N2YO · Heavens-Above · Gunter

§ Orbital elements

Epoch: 2026-05-24T19:30:07.219584Z

Period
94.27 min
Inclination
42.9978°
Eccentricity
0.0000484
Mean motion
15.27569270 rev/d
Perigee alt
482.7 km
Apogee alt
483.4 km
Semi-major
6,861.2 km
B*
-9.7123e-4
RAAN
313.1811°
Arg perigee
264.0597°
Mean anomaly
96.0200°
Rev number
2,693

§ Raw data

STARLINK-361131 66982U 25288Z   26144.81258356 -.00026882  00000+0 -97123-3 0  99932 66982  42.9978 313.1811 0000484 264.0597  96.0200 15.27569270 26930

JSON: /api/v1/satellites/66982 · /tle

For live sub-satellite position, see the globe view (requires WebGL).

§ Visibility from observer

Set your observer location to see the next 7 days of passes ≥ 10°. The values pass through the URL so the page stays shareable.

No JS? Fill the form by hand. The geolocation button needs JavaScript.